Powrót do katalogu

GOES 19

AktywnyPogodaGEO
NORAD 60133·PAYLOAD·🇺🇸 United States

Wystrzelony Jun 25, 2024 z Cape Canaveral Space Force Station

Loading…

TLE

ŚwieżeSource: Space-Track

Epoka: Sep 14, 2026, 11:44 UTC

1 60133U 24119A   26257.48894609 -.00000257  00000-0  00000-0 0  9995
2 60133   0.0268  24.1370 0000330 231.4080 198.7486  1.00273710  7867

Śledź GOES 19 w czasie rzeczywistym z AllMySat

Download on the App Store